This demonstration page uses our WeatherBlox Daily Observations layout. Learn more.

Left ArrowRight Arrow

39.08367, -84.50855

Hourly Observations for April 7, 2022

Temp ( °F °C ) Dew Point ( °F °C ) Humidity (%) Winds ( mph kmh ) Pressure ( in mb ) Visibility ( mi km ) Precip ( " mm )
12:04 am 00:04 Mostly Cloudy with Fog 43 6.1 43 6.1 100 100 Calm 29.76 1008 0 0 0.00 0.00
12:53 am 00:53 Mostly Cloudy with Fog 40 4.4 40 4.4 100 100 Calm 29.74 1007 0 0 0.00 0.00
1:10 am 01:10 Clear with Fog 40 4.4 40 4.4 100 100 Calm 29.75 1007 1 1 0.00 0.00
1:19 am 01:19 Mostly Cloudy with Fog 40 4.4 40 4.4 100 100 Calm 29.76 1008 0 0 0.00 0.00
1:53 am 01:53 Mostly Cloudy with Fog 38 3.3 38 3.3 100 100 Calm 29.73 1007 0 0 0.00 0.00
2:06 am 02:06 Clear with Fog 39 3.9 39 3.9 100 100 Calm 29.75 1007 1 1 0.00 0.00
2:13 am 02:13 Mostly Cloudy with Fog 39 3.9 39 3.9 100 100 Calm 29.75 1007 0 0 0.00 0.00
2:53 am 02:53 Mostly Cloudy with Fog 38 3.3 38 3.3 100 100 NW 3 6 29.72 1006 1 1 0.00 0.00
2:57 am 02:57 Partly Cloudy with Mist and Fog 38 3.3 38 3.3 100 100 WNW 3 6 29.74 1007 1 2 0.00 0.00
3:05 am 03:05 Mostly Cloudy with Mist and Fog 37 2.8 37 2.8 100 100 Calm 29.73 1007 1 1 0.00 0.00
3:18 am 03:18 Mostly Cloudy with Fog 36 2.2 36 2.2 100 100 Calm 29.73 1007 0 0 0.00 0.00
3:53 am 03:53 Mostly Cloudy with Fog 37 2.8 37 2.8 100 100 Calm 29.71 1006 0 0 0.00 0.00
4:19 am 04:19 Mostly Cloudy with Mist and Fog 35 1.7 35 1.7 100 100 Calm 29.73 1007 1 1 0.00 0.00
4:36 am 04:36 Mostly Cloudy with Fog 36 2.2 36 2.2 100 100 Calm 29.72 1007 0 0 0.00 0.00
4:42 am 04:42 Clear with Mist and Fog 36 2.2 36 2.2 100 100 Calm 29.72 1007 1 1 0.00 0.00
4:50 am 04:50 Mostly Clear with Mist and Fog 37 3 37 3 100 100 Calm 29.72 1006 1 2 0.00 0.00
4:53 am 04:53 Mostly Clear with Mist and Fog 38 3.3 38 3.3 100 100 Calm 29.70 1006 2 2 0.00 0.00
4:56 am 04:56 Clear with Mist and Fog 39 3.9 38 3.3 96 96 Calm 29.72 1006 3 5 0.00 0.00
5:53 am 05:53 Mostly Cloudy 41 5 41 5 100 100 Calm 29.69 1005 7 11 0.00 0.00
6:53 am 06:53 Partly Cloudy 41 5 41 5 100 100 Calm 29.68 1005 10 16 0.00 0.00
7:35 am 07:35 Mostly Cloudy 39 3.9 39 3.9 100 100 ESE 3 6 29.71 1006 1 2 0.00 0.00
7:38 am 07:38 Partly Cloudy with Mist and Fog 39 3.9 39 3.9 100 100 SE 3 6 29.71 1006 6 10 0.00 0.00
7:53 am 07:53 Mostly Cloudy with Mist and Fog 42 5.6 42 5.6 100 100 SSE 3 6 29.69 1005 6 10 0.00 0.00
8:53 am 08:53 Mostly Cloudy with Mist and Fog 48 8.9 46 7.8 93 93 SSW 9 15 29.70 1006 6 10 0.00 0.00
9:13 am 09:13 Mostly Cloudy 48 8.9 46 7.8 93 93 SW 8 13 29.71 1006 10 16 0.00 0.00
9:24 am 09:24 Mostly Cloudy 49 9.4 46 7.8 90 90 SW 9 15 29.71 1006 8 13 0.00 0.00
9:53 am 09:53 Mostly Cloudy 50 10 45 7.2 83 83 WSW 10 17 29.69 1006 8 13 0.00 0.00
10:53 am 10:53 Mostly Cloudy 50 10 40 4.4 68 68 W 12 19 29.71 1006 10 16 0.00 0.00
11:53 am 11:53 Mostly Cloudy 51 10.6 38 3.3 61 61 WNW 13 20 29.70 1006 10 16 0.00 0.00
12:53 pm 12:53 Mostly Cloudy 51 10.6 35 1.7 54 54 W 10 17 29.70 1006 10 16 0.00 0.00
1:53 pm 13:53 Cloudy 51 10.6 33 0.6 50 50 W 15 24 29.70 1006 10 16 0.00 0.00
2:53 pm 14:53 Mostly Cloudy 52 11.1 30 -1.1 43 43 W 13 20 29.69 1005 10 16 0.00 0.00
3:53 pm 15:53 Mostly Cloudy 53 11.7 29 -1.7 40 40 W 16 26 29.69 1005 10 16 0.00 0.00
4:53 pm 16:53 Mostly Cloudy 53 11.7 30 -1.1 41 41 W 15 24 29.69 1006 10 16 0.00 0.00
5:53 pm 17:53 Cloudy 52 11.1 30 -1.1 43 43 WSW 15 24 29.71 1006 10 16 0.00 0.00
6:53 pm 18:53 Cloudy 50 10 32 0 50 50 WSW 8 13 29.73 1007 10 16 0.00 0.00
7:53 pm 19:53 Cloudy 45 7.2 37 2.8 74 74 SSW 9 15 29.75 1007 10 16 0.00 0.00
8:53 pm 20:53 Mostly Cloudy 42 5.6 37 2.8 82 82 W 5 7 29.76 1008 10 16 0.04 1.02
9:53 pm 21:53 Clear with Mist and Fog 38 3.3 38 3.3 100 100 Calm 29.77 1008 6 10 0.00 0.00
10:37 pm 22:37 Clear with Mist and Fog 37 2.8 37 2.8 100 100 Calm 29.79 1009 2 3 0.00 0.00
10:44 pm 22:44 Clear with Mist and Fog 36 2.2 36 2.2 100 100 ENE 3 6 29.78 1009 3 5 0.00 0.00
10:53 pm 22:53 Clear with Mist and Fog 36 2.2 36 2.2 100 100 Calm 29.77 1008 1 2 0.00 0.00
11:02 pm 23:02 Clear with Mist and Fog 37 2.8 37 2.8 100 100 Calm 29.78 1009 3 5 0.00 0.00
11:07 pm 23:07 Clear with Mist and Fog 37 2.8 37 2.8 100 100 Calm 29.78 1009 2 2 0.00 0.00
11:11 pm 23:11 Mostly Cloudy with Fog 34 1.1 34 1.1 100 100 Calm 29.79 1009 0 0 0.00 0.00
11:27 pm 23:27 Clear with Fog 35 1.7 35 1.7 100 100 Calm 29.78 1009 0 0 0.00 0.00
11:41 pm 23:41 Mostly Cloudy with Fog 35 1.7 35 1.7 100 100 Calm 29.77 1008 0 0 0.00 0.00
11:53 pm 23:53 Mostly Cloudy with Fog 35 1.7 35 1.7 100 100 Calm 29.76 1008 0 0 0.00 0.00

Powered by AerisWeather